Location: Kvarnån
(66.4000°N, 22.2667°E)
Time: 20:55:26
(UTC+00:00)

Cosmos 540 Rocket - Pass Details

Date: 15 October 2024
Orbit: 736 x 750 km, 74.1° (Epoch: 05 November)

Event Time Altitude Azimuth Distance (km) Brightness Sun altitude
Rises 18:16:29 0° 317° (NW) 3,200 7.9 -19.8°
Reaches altitude 10° 18:18:51 10° 317° (NW) 2,275 6.9 -20.1°
Maximum altitude 18:24:01 85° 230° (SW) 761 3.4 -20.5°
Enters shadow 18:25:49 42° 145° (SE) 1,070 3.8 -20.7°
